Everett, WA

2:52 AM PDT on September 21, 2017 (GMT -0700)
Snohomish County

Weather History for KPAE - July, 2013

Change the Weather History Date:

Monday, July 29, 2013

  Actual Average Record
Temperature  
Mean Temperature 63 °F -  
Max Temperature 72 °F 74 °F 90 °F (1958)
Min Temperature 55 °F 54 °F 45 °F (1954)
Degree Days  
Heating Degree Days 2    
Growing Degree Days 13 (Base 50)    
Moisture  
Dew Point 51 °F    
Average Humidity 68    
Maximum Humidity 80    
Minimum Humidity 51    
Precipitation  
Precipitation 0.00 in - - ()
Sea Level Pressure  
Sea Level Pressure 30.00 in    
Wind  
Wind Speed 6 mph (SW)    
Max Wind Speed 9 mph    
Max Gust Speed -    
Visibility 10 miles    
Events      
Averages and records for this station are not official NWS values.
T = Trace of Precipitation, MM = Missing Value Source: NWS Daily Summary

Daily Weather History Graph

Daily Weather History Graph

Search for Another Location

Airport or City:

Trip Planner

Search our weather history database for the weather conditions in past years. The results will help you decide how hot, cold, wet, or windy it might be!

Date:

Astronomy

Jul. 29, 2013 Rise Set
Actual Time 5:42 AM PDT 8:48 PM PDT
Civil Twilight 5:05 AM PDT 9:24 PM PDT
Nautical Twilight 4:17 AM PDT 10:12 PM PDT
Astronomical Twilight 3:18 AM PDT 11:10 PM PDT
Moon No Moon Rise 2:09 PM PDT (7/29)
Length of Visible Light 16h 19m
Length of Day
15h 05m
Waning Gibbous, 50% of the Moon is Illuminated
Jul 29
Waning Gibbous
Aug 6
New
Aug 14
First Quarter
Aug 20
Full
Aug 28
Last Quarter

Hourly Weather History & Observations

Time (PDT) Temp. Dew Point Humidity Pressure Visibility Wind Dir Wind Speed Gust Speed Precip Events Conditions
12:53 AM 57.9 °F 51.1 °F 78% 30.00 in 10.0 mi South 8.1 mph - N/A   Scattered Clouds
1:53 AM 57.9 °F 50.0 °F 75% 29.99 in 10.0 mi South 9.2 mph - N/A   Overcast
2:53 AM 57.9 °F 50.0 °F 75% 29.99 in 10.0 mi South 5.8 mph - N/A   Overcast
3:53 AM 57.0 °F 50.0 °F 77% 29.99 in 10.0 mi SSW 6.9 mph - N/A   Overcast
4:53 AM 55.9 °F 50.0 °F 80% 30.00 in 10.0 mi SSW 3.5 mph - N/A   Overcast
5:53 AM 55.9 °F 50.0 °F 80% 30.00 in 10.0 mi SSW 4.6 mph - N/A   Overcast
6:53 AM 55.9 °F 50.0 °F 80% 30.01 in 10.0 mi SSW 4.6 mph - N/A   Overcast
7:53 AM 57.0 °F 50.0 °F 77% 30.02 in 10.0 mi SW 5.8 mph - N/A   Overcast
8:53 AM 57.9 °F 50.0 °F 75% 30.03 in 10.0 mi SW 6.9 mph - N/A   Overcast
9:53 AM 60.1 °F 50.0 °F 69% 30.02 in 10.0 mi WSW 4.6 mph - N/A   Overcast
10:53 AM 60.1 °F 50.0 °F 69% 30.02 in 10.0 mi WSW 6.9 mph - N/A   Overcast
11:53 AM 63.0 °F 50.0 °F 63% 30.02 in 10.0 mi SSE 5.8 mph - N/A   Overcast
12:53 PM 64.9 °F 51.1 °F 61% 30.01 in 10.0 mi WSW 6.9 mph - N/A   Partly Cloudy
1:53 PM 66.9 °F 51.1 °F 57% 30.01 in 10.0 mi Variable 3.5 mph - N/A   Clear
2:53 PM 69.1 °F 51.1 °F 53% 29.99 in 10.0 mi West 6.9 mph - N/A   Clear
3:53 PM 70.0 °F 51.1 °F 51% 29.99 in 10.0 mi WNW 6.9 mph - N/A   Clear
4:53 PM 70.0 °F 51.1 °F 51% 29.99 in 10.0 mi West 5.8 mph - N/A   Clear
5:53 PM 71.1 °F 52.0 °F 51% 29.98 in 10.0 mi West 5.8 mph - N/A   Clear
6:53 PM 69.1 °F 52.0 °F 54% 29.98 in 10.0 mi WSW 4.6 mph - N/A   Clear
7:53 PM 68.0 °F 51.1 °F 55% 29.99 in 10.0 mi West 4.6 mph - N/A   Clear
8:53 PM 64.9 °F 52.0 °F 63% 29.99 in 10.0 mi Calm Calm - N/A   Clear
9:53 PM 61.0 °F 53.1 °F 75% 30.01 in 10.0 mi Variable 3.5 mph - N/A   Clear
10:53 PM 59.0 °F 52.0 °F 78% 30.02 in 10.0 mi NNE 4.6 mph - N/A   Clear
11:53 PM 60.1 °F 53.1 °F 78% 30.03 in 10.0 mi NNE 5.8 mph - N/A   Clear